Location: ??????
(30.0081°N, 31.2109°E)
Time: 09:11:00
(UTC+00:00)

Okean-O - Pass Details

Date: 03 March 2021
Orbit: 639 x 640 km, 98.2° (Epoch: 15 April)

Event Time Altitude Azimuth Distance (km) Brightness Sun altitude
Rises 16:39:36 0° 160° (SSE) 2,929 5.8 -10.3°
Reaches altitude 10° 16:41:48 10° 157° (SSE) 2,023 5.0 -10.8°
Maximum altitude 16:46:10 65° 76° (ENE) 702 2.6 -11.7°
Drops below altitude 10° 16:50:33 10° 355° (N) 2,035 5.3 -12.7°
Sets 16:52:47 0° 352° (N) 2,947 6.1 -13.2°
